FW1241 Weather Reports


Display with metric or nautical units.
time (UTC)temp
F
wind
direction
speed
MPH
gust
MPH
rain 1hr
in
rain 24hr
in
rain mn
in
humidity
%
barometer
mb
20260508074104 66 89 0.0 0.0 0.00 0.00 0.00 83 1014.0
20260508073604 66 89 0.0 0.0 0.00 0.00 0.00 82 1013.9
20260508073103 67 89 0.0 0.0 0.00 0.00 0.00 82 1013.8
20260508072604 67 89 0.0 0.0 0.00 0.00 0.00 81 1013.8
20260508072104 67 89 0.0 0.0 0.00 0.00 0.00 81 1013.8
20260508064604 69 278 0.0 0.0 0.00 0.00 0.00 79 1013.5
20260508064104 69 278 0.0 0.0 0.00 0.00 0.00 78 1013.6
20260508062604 70 278 0.0 0.0 0.00 0.00 0.00 77 1013.5
20260508062104 70 278 0.0 0.0 0.00 0.00 0.00 76 1013.5
20260508061604 71 278 0.0 0.0 0.00 0.00 0.00 75 1013.6
20260508061104 71 278 0.0 0.0 0.00 0.00 0.00 75 1013.6
20260508060604 71 278 0.0 0.0 0.00 0.00 0.00 74 1013.5
20260508055104 72 278 0.0 0.0 0.00 0.00 0.00 73 1013.5
20260508054604 72 277 0.0 0.0 0.00 0.00 0.00 73 1013.6
20260508054104 72 277 0.0 0.0 0.00 0.00 0.00 71 1013.6
20260508053603 72 277 0.0 0.0 0.00 0.00 0.00 70 1013.6
20260508053104 72 277 0.0 0.0 0.00 0.00 0.00 69 1013.5
20260508051603 73 277 0.0 0.0 0.00 0.00 0.00 67 1013.5
20260508050104 73 277 0.0 0.0 0.00 0.00 0.00 68 1013.5
20260508045603 73 277 0.0 0.0 0.00 0.00 0.00 68 1013.6
20260508044103 73 277 0.0 0.0 0.00 0.00 0.00 66 1013.5
20260508043604 73 277 0.0 0.0 0.00 0.00 0.00 67 1013.4
20260508042604 73 277 0.0 0.0 0.00 0.00 0.00 65 1013.3
20260508040604 74 277 0.0 0.0 0.00 0.00 0.00 64 1013.1
20260508035104 75 277 0.0 0.0 0.00 0.00 0.00 62 1012.9
20260508034103 76 277 0.0 0.0 0.00 0.00 0.00 60 1012.8
20260508033604 76 277 0.0 0.0 0.00 0.00 0.00 59 1012.8
20260508033104 77 277 0.0 0.0 0.00 0.00 0.00 58 1012.7
20260508031604 78 277 0.0 0.0 0.00 0.00 0.00 56 1012.4
20260508030603 79 277 0.0 0.0 0.00 0.00 0.00 54 1012.3
20260508025604 80 278 0.0 1.0 0.00 0.00 0.00 53 1012.2
20260508024603 81 280 0.0 0.0 0.00 0.00 0.00 51 1012.1
20260508024104 81 280 0.0 0.0 0.00 0.00 0.00 50 1012.1
20260508023603 82 267 0.0 1.0 0.00 0.00 0.00 50 1012.0
20260508023103 82 263 0.0 1.0 0.00 0.00 0.00 49 1012.0
20260508022603 83 259 0.0 2.0 0.00 0.00 0.00 48 1012.0
20260508021604 83 328 0.0 2.0 0.00 0.00 0.00 46 1011.9
20260508021103 84 307 0.0 1.0 0.00 0.00 0.00 45 1011.9
20260508015603 85 301 0.0 2.0 0.00 0.00 0.00 43 1011.9
20260508013604 87 305 1.0 3.0 0.00 0.00 0.00 40 1011.9
20260508013104 87 300 0.0 2.0 0.00 0.00 0.00 41 1011.9
20260508012604 87 304 1.0 3.0 0.00 0.00 0.00 40 1011.9
20260508011604 88 296 1.0 3.0 0.00 0.00 0.00 40 1011.9
20260508010604 88 294 1.0 6.0 0.00 0.00 0.00 41 1011.9
20260508005103 88 285 1.0 3.0 0.00 0.00 0.00 39 1012.0
20260508004104 88 302 1.0 3.0 0.00 0.00 0.00 39 1012.0
20260508003604 88 321 1.0 3.0 0.00 0.00 0.00 39 1012.1
20260508003104 88 315 0.0 3.0 0.00 0.00 0.00 39 1012.1
20260508002603 88 301 1.0 3.0 0.00 0.00 0.00 40 1012.2
20260508002104 88 301 1.0 3.0 0.00 0.00 0.00 40 1012.3
20260508000104 88 314 1.0 3.0 0.00 0.00 0.00 40 1012.4
20260507235104 88 296 0.0 3.0 0.00 0.00 0.00 39 1012.4
20260507232604 87 296 2.0 6.0 0.00 0.00 0.00 40 1012.5
20260507231104 87 315 1.0 3.0 0.00 0.00 0.00 41 1012.6
20260507230604 87 321 1.0 3.0 0.00 0.00 0.00 40 1012.7
20260507225604 87 310 2.0 5.0 0.00 0.00 0.00 40 1012.8
20260507225104 87 321 2.0 3.0 0.00 0.00 0.00 39 1012.9
20260507224103 87 2 1.0 3.0 0.00 0.00 0.00 39 1013.0
20260507223604 86 309 1.0 6.0 0.00 0.00 0.00 41 1013.0
20260507222603 86 297 2.0 3.0 0.00 0.00 0.00 42 1013.1
20260507221103 86 288 0.0 3.0 0.00 0.00 0.00 41 1013.4
20260507220104 86 274 1.0 3.0 0.00 0.00 0.00 40 1013.5
20260507215603 86 36 1.0 3.0 0.00 0.00 0.00 41 1013.6
20260507215104 86 304 2.0 6.0 0.00 0.00 0.00 41 1013.7
20260507212604 86 304 1.0 3.0 0.00 0.00 0.00 40 1014.0
20260507212104 86 318 0.0 3.0 0.00 0.00 0.00 42 1014.1
20260507211103 85 305 1.0 3.0 0.00 0.00 0.00 41 1014.3
20260507210604 85 177 0.0 2.0 0.00 0.00 0.00 42 1014.4
20260507205604 85 272 0.0 3.0 0.00 0.00 0.00 43 1014.6
20260507205104 85 299 1.0 3.0 0.00 0.00 0.00 41 1014.7
20260507204603 85 291 0.0 3.0 0.00 0.00 0.00 43 1014.7
20260507202604 83 19 0.0 2.0 0.00 0.00 0.00 43 1014.9
20260507202104 83 312 0.0 5.0 0.00 0.00 0.00 42 1015.0
20260507201604 83 280 1.0 5.0 0.00 0.00 0.00 43 1015.0
20260507201103 84 296 1.0 3.0 0.00 0.00 0.00 44 1015.1
20260507200604 84 312 1.0 3.0 0.00 0.00 0.00 44 1015.2
20260507200104 84 308 0.0 2.0 0.00 0.00 0.00 44 1015.3
20260507193604 83 267 0.0 3.0 0.00 0.00 0.00 44 1015.6
20260507193104 82 131 0.0 1.0 0.00 0.00 0.00 45 1015.7
20260507192604 82 274 0.0 2.0 0.00 0.00 0.00 46 1015.7
20260507191604 82 237 0.0 3.0 0.00 0.00 0.00 47 1015.9
20260507191104 82 245 0.0 2.0 0.00 0.00 0.00 47 1016.0
20260507185604 81 304 1.0 3.0 0.00 0.00 0.00 46 1016.2
20260507185103 81 352 0.0 1.0 0.00 0.00 0.00 47 1016.2
20260507184104 81 122 0.0 1.0 0.00 0.00 0.00 48 1016.3
20260507183604 80 319 0.0 2.0 0.00 0.00 0.00 48 1016.4
20260507182604 79 296 1.0 3.0 0.00 0.00 0.00 51 1016.5
20260507182104 79 214 1.0 2.0 0.00 0.00 0.00 49 1016.5
20260507181104 79 280 0.0 2.0 0.00 0.00 0.00 51 1016.6
20260507180604 79 305 1.0 3.0 0.00 0.00 0.00 49 1016.6
20260507180104 79 163 0.0 1.0 0.00 0.00 0.00 50 1016.6
20260507174104 77 298 1.0 3.0 0.00 0.00 0.00 51 1016.9
20260507173604 77 297 1.0 3.0 0.00 0.00 0.00 51 1016.9
20260507173104 77 299 0.0 1.0 0.00 0.00 0.00 52 1016.9
20260507172104 78 306 0.0 2.0 0.00 0.00 0.00 49 1016.9
20260507171603 78 189 0.0 3.0 0.00 0.00 0.00 51 1017.0
20260507170104 77 156 0.0 2.0 0.00 0.00 0.00 52 1017.0
20260507163104 75 220 0.0 1.0 0.00 0.00 0.00 54 1017.3
20260507162603 74 93 0.0 1.0 0.00 0.00 0.00 55 1017.3
20260507162103 74 224 1.0 3.0 0.00 0.00 0.00 55 1017.4
20260507161604 73 195 0.0 2.0 0.00 0.00 0.00 57 1017.4
20260507161104 73 168 1.0 3.0 0.00 0.00 0.00 57 1017.4
20260507160603 73 282 0.0 3.0 0.00 0.00 0.00 58 1017.4
20260507155104 72 104 1.0 3.0 0.00 0.00 0.00 58 1017.5
20260507154604 71 120 0.0 2.0 0.00 0.00 0.00 58 1017.5
20260507154103 72 105 0.0 1.0 0.00 0.00 0.00 59 1017.5
20260507153604 71 138 0.0 1.0 0.00 0.00 0.00 61 1017.5
20260507153103 71 129 0.0 1.0 0.00 0.00 0.00 61 1017.6
20260507152604 70 177 0.0 0.0 0.00 0.00 0.00 64 1017.6
20260507152105 70 118 0.0 1.0 0.00 0.00 0.00 61 1017.6
20260507150604 70 171 0.0 0.0 0.00 0.00 0.00 64 1017.7
20260507145604 68 155 0.0 0.0 0.00 0.00 0.00 66 1017.7
20260507145104 67 155 0.0 0.0 0.00 0.00 0.00 68 1017.7
20260507144604 66 136 0.0 0.0 0.00 0.00 0.00 68 1017.7
20260507144104 66 131 0.0 0.0 0.00 0.00 0.00 69 1017.7
20260507135604 59 131 0.0 0.0 0.00 0.00 0.00 83 1017.4
20260507133104 57 131 0.0 0.0 0.00 0.00 0.00 86 1017.2
20260507132604 57 131 0.0 0.0 0.00 0.00 0.00 87 1017.1
20260507131605 56 131 0.0 0.0 0.00 0.00 0.00 89 1017.0
20260507125604 56 131 0.0 0.0 0.00 0.00 0.00 87 1016.9
20260507125105 56 131 0.0 0.0 0.00 0.00 0.00 87 1016.9
20260507124605 56 131 0.0 0.0 0.00 0.00 0.00 87 1016.9
20260507124105 56 205 0.0 0.0 0.00 0.00 0.00 87 1016.9
20260507123604 56 205 0.0 0.0 0.00 0.00 0.00 87 1016.8
20260507122105 56 205 0.0 0.0 0.00 0.00 0.00 89 1016.8
20260507121605 56 205 0.0 0.0 0.00 0.00 0.00 89 1016.8
20260507120605 56 205 0.0 0.0 0.00 0.00 0.00 88 1016.8
20260507120104 56 205 0.0 0.0 0.00 0.00 0.00 88 1016.8
20260507114105 57 205 0.0 0.0 0.00 0.00 0.00 88 1016.8
20260507113105 57 205 0.0 0.0 0.00 0.00 0.00 88 1016.9
20260507112605 57 205 0.0 0.0 0.00 0.00 0.00 88 1016.8
20260507112104 57 205 0.0 0.0 0.00 0.00 0.00 88 1016.7
20260507111105 57 205 0.0 0.0 0.00 0.00 0.00 88 1016.8
20260507110605 57 205 0.0 0.0 0.00 0.00 0.00 88 1016.8
20260507104105 57 205 0.0 0.0 0.00 0.00 0.00 88 1016.8
20260507103604 57 205 0.0 0.0 0.00 0.00 0.00 87 1016.9
20260507103105 57 205 0.0 0.0 0.00 0.00 0.00 87 1016.9
20260507102105 58 205 0.0 0.0 0.00 0.00 0.00 86 1016.9
20260507101605 58 205 0.0 0.0 0.00 0.00 0.00 86 1016.9
20260507100605 58 205 0.0 0.0 0.00 0.00 0.00 85 1016.8
20260507100105 59 300 0.0 0.0 0.00 0.00 0.00 85 1016.8
20260507095605 59 300 0.0 0.0 0.00 0.00 0.00 85 1016.9
20260507094605 59 300 0.0 0.0 0.00 0.00 0.00 85 1016.8
20260507091604 59 300 0.0 0.0 0.00 0.00 0.00 85 1016.9
20260507091105 59 300 0.0 0.0 0.00 0.00 0.00 85 1016.9
20260507085105 60 300 0.0 0.0 0.00 0.00 0.00 84 1016.9
20260507084604 60 300 0.0 0.0 0.00 0.00 0.00 84 1017.0
20260507082605 60 300 0.0 0.0 0.00 0.00 0.00 82 1017.0
20260507081605 61 300 0.0 0.0 0.00 0.00 0.00 81 1017.1
20260507080106 61 300 0.0 0.0 0.00 0.00 0.00 81 1017.2
20260507075604 61 300 0.0 0.0 0.00 0.00 0.00 81 1017.2
20260507075105 61 300 0.0 0.0 0.00 0.00 0.00 81 1017.2